#timestamp,LO_Frequency,Temp,Hum 
1440072015.4,286078796.9,27.1,40.1 
1440072035.6,286078799.9,27.1,40.1 
1440072055.7,286078800.8,27.1,40.1 
1440072075.8,286078803.0,27.1,40.1 
1440072096.0,286078801.5,27.1,40.1 
1440072116.1,286078795.7,27.1,40.1 
1440072135.3,286078798.9,27.1,40.1 
1440072155.4,286078801.0,27.1,40.1 
1440072175.6,286078801.4,27.1,40.1 
1440072195.7,286078794.0,27.1,40.1 
1440072215.8,286078804.2,27.1,40.1 
1440072235.9,286078800.6,27.1,40.1 
1440072256.1,286078801.2,27.1,40.1 
1440072275.3,286078801.4,27.1,40.1 
1440072295.4,286078796.8,27.1,40.1 
1440072315.5,286078801.6,27.1,40.1 
1440072335.7,286078802.9,27.1,40.1 
1440072355.8,286078799.6,27.1,39.6 
1440072375.9,286078798.9,27.1,40.1 
1440072396.0,286078794.1,27.1,40.1 
1440072415.3,286078803.8,27.1,40.1 
1440072435.4,286078800.8,27.1,39.6 
1440072455.5,286078799.5,27.1,39.1 
1440072475.6,286078796.8,27.1,39.6 
1440072495.8,286078802.1,27.1,39.6 
1440072515.9,286078800.7,27.1,39.6 
1440072536.0,286078800.2,27.1,39.6 
1440072555.2,286078802.3,27.1,40.1 
1440072575.4,286078801.0,27.1,40.1 
1440072595.5,286078793.7,27.1,40.1 
1440072615.6,286078800.5,27.1,40.1 
1440072635.7,286078802.1,27.1,40.1 
1440072655.9,286078802.2,27.1,40.1 
1440072676.0,286078802.9,27.1,40.1 
1440072696.1,286078799.8,27.1,40.1 
1440072715.3,286078797.5,27.1,39.6 
1440072735.4,286078800.9,27.1,39.6 
1440072755.6,286078797.0,27.1,39.6 
1440072775.7,286078798.4,27.1,40.1 
1440072795.8,286078801.5,27.1,40.1 
1440072815.9,286078797.3,27.1,40.1 
1440072836.1,286078798.0,27.1,40.1 
1440072855.3,286078804.5,27.1,40.1 
1440072875.4,286078800.8,27.1,39.6 
1440072895.5,286078800.9,27.1,39.6 
1440072915.7,286078801.3,27.1,39.1 
1440072935.8,286078798.5,27.1,39.1 
1440072955.9,286078801.1,27.1,38.6 
1440072976.0,286078796.9,27.1,38.1 
1440072995.3,286078801.0,27.1,38.1 
1440073015.4,286078799.2,27.1,38.6 
1440073035.5,286078798.9,27.1,39.1 
1440073055.6,286078800.2,27.1,39.1 
1440073075.8,286078802.6,27.1,39.1 
1440073095.9,286078796.9,27.1,39.1 
1440073116.0,286078802.7,27.1,39.1 
1440073135.2,286078799.1,27.1,39.1 
1440073155.4,286078801.5,27.1,39.1 
1440073175.5,286078796.9,27.1,39.1 
1440073195.6,286078801.1,27.1,38.6 
1440073215.8,286078800.3,27.1,39.1 
1440073235.9,286078799.8,27.1,39.6 
1440073256.0,286078798.0,27.1,40.1 
1440073275.3,286078797.4,27.1,40.1 
1440073295.4,286078800.3,27.1,40.1 
1440073315.5,286078799.8,27.1,40.1 
1440073335.7,286078801.1,27.1,40.1 
1440073355.8,286078798.4,27.1,40.1 
1440073375.9,286078803.1,27.1,40.1 
1440073396.1,286078798.5,27.1,39.6 
1440073415.3,286078800.2,27.1,39.6 
1440073435.4,286078800.8,27.1,39.1 
1440073455.6,286078798.4,27.1,39.1 
1440073475.7,286078800.0,27.1,38.6 
1440073495.8,286078802.8,27.1,38.6 
1440073516.0,286078799.1,27.1,38.6 
1440073536.1,286078799.9,27.1,39.1 
1440073555.3,286078797.4,27.1,39.6 
1440073575.4,286078804.0,27.1,39.6 
1440073595.6,286078799.5,27.1,40.1 
1440073615.7,286078798.8,27.1,40.1 
1440073635.8,286078800.4,27.1,40.1 
1440073655.9,286078801.0,27.1,40.1 
1440073676.1,286078798.5,27.1,39.6 
1440073695.3,286078800.0,27.1,39.1 
1440073715.4,286078802.6,27.1,39.6 
1440073735.5,286078794.3,27.1,40.1 
1440073755.7,286078800.8,27.1,40.1 
1440073775.8,286078798.9,27.1,40.1 
1440073795.9,286078801.1,27.1,40.1 
1440073816.0,286078801.1,27.1,40.1 
1440073835.3,286078798.9,27.1,40.1 
1440073855.4,286078798.6,27.1,40.1 
1440073875.5,286078798.6,27.1,40.6 
1440073895.6,286078801.3,27.1,40.6 
1440073915.8,286078802.8,27.1,40.1 
1440073935.9,286078801.2,27.1,40.1 
1440073956.0,286078797.3,27.1,39.6 
1440073975.2,286078802.4,27.1,39.6 
1440073995.3,286078799.7,27.1,39.6 
1440074015.5,286078801.1,27.1,39.1 
1440074035.6,286078798.0,27.1,39.1 
1440074055.7,286078802.6,27.1,39.6 
1440074075.8,286078799.1,27.1,39.1 
1440074096.0,286078798.4,27.1,39.6 
1440074116.1,286078799.7,27.1,40.1 
1440074135.3,286078798.6,27.1,40.1 
1440074155.4,286078798.8,27.1,40.1 
1440074175.6,286078802.8,27.1,40.6 
1440074195.7,286078799.9,27.1,40.6 
1440074215.8,286078799.6,27.1,40.1 
1440074235.9,286078804.2,27.1,40.1 
1440074256.1,286078795.5,27.1,40.6 
1440074275.3,286078802.2,27.1,40.6 
1440074295.4,286078798.8,27.1,40.6 
1440074315.5,286078802.9,27.1,40.6 
1440074335.7,286078795.8,27.1,40.6 
1440074355.8,286078801.9,27.1,40.6 
1440074375.9,286078801.3,27.1,40.6 
1440074396.1,286078796.9,27.1,40.1 
1440074415.3,286078801.6,27.1,40.1 
1440074435.4,286078800.8,27.1,39.6 
1440074455.5,286078799.7,27.1,39.1 
1440074475.7,286078800.9,27.1,38.6 
1440074495.8,286078797.5,27.1,38.1 
1440074515.9,286078800.8,27.1,38.1 
1440074536.0,286078798.0,27.1,38.1 
1440074555.3,286078800.4,27.1,38.1 
1440074575.4,286078800.9,27.1,38.1 
1440074595.5,286078798.9,27.1,38.1 
1440074615.6,286078797.2,27.1,38.1 
1440074635.8,286078803.1,27.1,38.1 
1440074655.9,286078798.7,27.1,38.1 
1440074676.0,286078800.2,27.1,38.1 
1440074695.2,286078798.4,27.1,38.6 
1440074715.4,286078802.0,27.1,39.1 
1440074735.5,286078797.0,27.1,39.1 
1440074755.6,286078804.2,27.1,39.6 
1440074775.8,286078799.0,27.1,40.1 
1440074795.9,286078802.4,27.1,40.1 
1440074816.0,286078798.0,27.1,40.1 
1440074835.2,286078799.0,27.1,40.1 
1440074855.4,286078800.4,27.1,40.1 
1440074875.5,286078800.9,27.1,40.6 
1440074895.6,286078799.8,27.1,40.6 
1440074915.7,286078801.3,27.1,40.1 
1440074935.9,286078799.1,27.1,40.1 
1440074956.0,286078799.6,27.1,39.6 
1440074976.1,286078799.7,27.1,39.6 
1440074995.3,286078799.9,27.1,39.1 
1440075015.5,286078796.8,27.1,39.1 
1440075035.6,286078800.8,27.1,39.1 
1440075055.7,286078798.8,27.1,38.6 
1440075075.8,286078801.5,27.1,38.1 
1440075096.0,286078798.4,27.1,37.6 
1440075115.2,286078801.3,27.1,37.6 
1440075135.4,286078799.3,27.1,37.6 
1440075155.5,286078798.8,27.1,38.1 
1440075175.6,286078796.9,27.1,39.1 
1440075195.8,286078803.0,27.1,39.1 
1440075215.9,286078801.5,27.1,39.1 
1440075236.0,286078796.6,27.1,39.6 
1440075255.2,286078798.9,27.1,40.1 
1440075275.4,286078798.4,27.1,40.1 
1440075295.5,286078801.1,27.1,40.1 
1440075315.6,286078802.6,27.1,40.1 
1440075335.8,286078798.4,27.1,40.1 
1440075355.9,286078804.1,27.1,40.1 
1440075376.0,286078801.1,27.1,40.1 
1440075395.2,286078797.9,27.1,39.6 
1440075415.4,286078800.8,27.1,39.1 
1440075435.5,286078798.7,27.1,38.6 
1440075455.6,286078799.7,27.1,37.6 
1440075475.7,286078799.7,27.1,37.6 
1440075495.9,286078799.1,27.1,37.2 
1440075516.0,286078800.6,27.1,37.2 
1440075535.2,286078798.9,27.1,36.7 
1440075555.3,286078800.0,27.1,36.7 
1440075575.5,286078800.1,27.1,36.2 
1440075595.6,286078802.8,27.1,36.2 
